Location: Sternwarte ZA, Rosenfeld-Brittheim
(48.2889°N, 8.6789°E)
Time: 05:07:40
(UTC+02:00)

ISS - Pass Details

Date: 21 September 2018
Orbit: 403 x 408 km, 51.6° (Epoch: 25 September)

Event Time Altitude Azimuth Distance (km) Brightness Sun altitude
Rises 21:15:08 0° 214° (SW) 2,322 0.2 -18.6°
Reaches altitude 10° 21:17:24 10° 201° (SSW) 1,465 -1.0 -18.9°
Enters shadow 21:17:47 12° 197° (SSW) 1,331 -1.3 -19.0°
